TimeCDT,TemperatureF,Dew PointF,Humidity,Sea Level PressureIn,VisibilityMPH,Wind Direction,Wind SpeedMPH,Gust SpeedMPH,PrecipitationIn,Events,Conditions,WindDirDegrees,DateUTC
12:15 AM,38.3,31.6,77,29.89,10.0,WNW,15.0,21.9,N/A,,Overcast,290,2013-04-13 05:15:00
12:35 AM,37.4,32.7,83,29.90,5.0,West,10.4,17.3,N/A,,Overcast,280,2013-04-13 05:35:00
12:55 AM,36.9,33.3,87,29.90,10.0,West,10.4,-,N/A,,Overcast,270,2013-04-13 05:55:00
1:15 AM,36.9,33.6,88,29.91,10.0,West,12.7,-,N/A,,Overcast,260,2013-04-13 06:15:00
1:35 AM,36.9,33.3,87,29.91,10.0,West,10.4,-,N/A,,Overcast,270,2013-04-13 06:35:00
1:55 AM,36.9,32.9,86,29.90,10.0,West,13.8,-,N/A,,Overcast,270,2013-04-13 06:55:00
2:15 AM,36.9,32.2,83,29.90,10.0,West,13.8,-,N/A,,Overcast,260,2013-04-13 07:15:00
2:35 AM,36.9,32.0,83,29.89,10.0,West,10.4,-,N/A,,Overcast,260,2013-04-13 07:35:00
2:55 AM,37.0,32.5,84,29.88,10.0,WSW,12.7,17.3,N/A,,Overcast,250,2013-04-13 07:55:00
3:15 AM,36.9,32.0,83,29.88,10.0,West,11.5,-,N/A,,Overcast,260,2013-04-13 08:15:00
3:35 AM,36.9,32.0,83,29.88,10.0,West,12.7,17.3,N/A,,Overcast,260,2013-04-13 08:35:00
3:55 AM,36.9,32.0,83,29.89,10.0,West,15.0,-,N/A,,Overcast,260,2013-04-13 08:55:00
4:15 AM,36.7,30.9,80,29.89,10.0,West,15.0,25.3,N/A,,Overcast,280,2013-04-13 09:15:00
4:35 AM,35.8,30.2,80,29.89,10.0,West,15.0,20.7,N/A,,Overcast,280,2013-04-13 09:35:00
4:55 AM,35.6,30.2,81,29.89,10.0,West,13.8,18.4,N/A,,Overcast,260,2013-04-13 09:55:00
5:15 AM,35.8,30.2,80,29.90,10.0,West,15.0,-,N/A,,Overcast,260,2013-04-13 10:15:00
5:35 AM,35.8,30.2,80,29.89,10.0,West,16.1,21.9,N/A,,Overcast,260,2013-04-13 10:35:00
5:55 AM,35.8,30.0,80,29.89,10.0,West,16.1,-,N/A,,Overcast,270,2013-04-13 10:55:00
6:15 AM,35.6,28.9,77,29.90,10.0,West,13.8,19.6,N/A,,Overcast,270,2013-04-13 11:15:00
6:35 AM,35.6,28.2,75,29.90,10.0,West,15.0,23.0,N/A,,Overcast,260,2013-04-13 11:35:00
6:55 AM,35.6,28.8,76,29.91,10.0,West,15.0,-,N/A,,Overcast,260,2013-04-13 11:55:00
7:15 AM,35.6,28.9,77,29.91,10.0,West,13.8,-,N/A,,Overcast,260,2013-04-13 12:15:00
7:35 AM,35.6,28.9,77,29.92,10.0,West,15.0,20.7,N/A,,Overcast,260,2013-04-13 12:35:00
7:55 AM,35.6,29.1,77,29.93,10.0,West,15.0,19.6,N/A,,Overcast,270,2013-04-13 12:55:00
8:15 AM,35.6,29.1,77,29.93,10.0,West,13.8,21.9,N/A,,Overcast,260,2013-04-13 13:15:00
8:35 AM,35.6,29.1,77,29.93,10.0,West,17.3,21.9,N/A,,Overcast,270,2013-04-13 13:35:00
8:55 AM,36.5,29.7,76,29.94,10.0,West,16.1,-,N/A,,Overcast,270,2013-04-13 13:55:00
9:15 AM,37.0,29.3,74,29.94,10.0,West,20.7,28.8,N/A,,Overcast,270,2013-04-13 14:15:00
9:35 AM,36.9,29.1,74,29.95,10.0,West,16.1,26.5,N/A,,Overcast,280,2013-04-13 14:35:00
9:55 AM,36.9,28.8,72,29.95,10.0,West,21.9,27.6,N/A,,Overcast,270,2013-04-13 14:55:00
10:15 AM,36.9,29.1,74,29.96,10.0,West,16.1,23.0,N/A,,Overcast,280,2013-04-13 15:15:00
10:35 AM,37.6,29.3,72,29.97,10.0,West,13.8,24.2,N/A,,Overcast,280,2013-04-13 15:35:00
10:55 AM,38.8,28.6,67,29.97,10.0,West,13.8,27.6,N/A,,Overcast,280,2013-04-13 15:55:00
11:15 AM,39.6,28.8,65,29.97,10.0,West,16.1,24.2,N/A,,Overcast,280,2013-04-13 16:15:00
11:35 AM,40.8,29.5,64,29.97,10.0,WNW,19.6,24.2,N/A,,Overcast,300,2013-04-13 16:35:00
11:55 AM,40.5,29.5,65,29.98,10.0,West,18.4,24.2,N/A,,Overcast,270,2013-04-13 16:55:00
12:15 PM,41.2,30.0,65,29.98,10.0,West,19.6,26.5,N/A,,Overcast,280,2013-04-13 17:15:00
12:35 PM,41.2,29.3,63,29.98,10.0,West,15.0,25.3,N/A,,Mostly Cloudy,280,2013-04-13 17:35:00
12:55 PM,43.3,30.2,60,29.97,10.0,WNW,16.1,26.5,N/A,,Mostly Cloudy,290,2013-04-13 17:55:00
1:15 PM,43.7,30.4,59,29.97,10.0,West,17.3,24.2,N/A,,Mostly Cloudy,270,2013-04-13 18:15:00
1:35 PM,45.0,31.1,58,29.96,10.0,West,21.9,27.6,N/A,,Mostly Cloudy,260,2013-04-13 18:35:00
1:55 PM,44.2,30.4,58,29.97,10.0,West,18.4,29.9,N/A,,Mostly Cloudy,270,2013-04-13 18:55:00
2:15 PM,45.0,30.4,57,29.97,10.0,West,13.8,23.0,N/A,,Scattered Clouds,280,2013-04-13 19:15:00
2:35 PM,45.0,30.7,57,29.96,10.0,WNW,18.4,-,N/A,,Scattered Clouds,290,2013-04-13 19:35:00
2:55 PM,45.1,30.9,58,29.96,10.0,WNW,15.0,21.9,N/A,,Scattered Clouds,290,2013-04-13 19:55:00
3:15 PM,47.3,31.8,55,29.95,10.0,WNW,13.8,17.3,N/A,,Scattered Clouds,300,2013-04-13 20:15:00
3:35 PM,46.0,30.7,55,29.95,10.0,West,9.2,19.6,N/A,,Scattered Clouds,280,2013-04-13 20:35:00
3:55 PM,46.6,31.1,55,29.94,10.0,West,10.4,16.1,N/A,,Mostly Cloudy,280,2013-04-13 20:55:00
4:15 PM,47.5,31.1,53,29.95,10.0,West,15.0,19.6,N/A,,Mostly Cloudy,260,2013-04-13 21:15:00
4:35 PM,47.5,31.3,53,29.95,10.0,West,9.2,19.6,N/A,,Mostly Cloudy,280,2013-04-13 21:35:00
4:55 PM,47.8,31.5,53,29.94,10.0,West,11.5,16.1,N/A,,Mostly Cloudy,260,2013-04-13 21:55:00
5:15 PM,47.3,31.5,54,29.95,10.0,West,5.8,-,N/A,,Mostly Cloudy,270,2013-04-13 22:15:00
5:35 PM,48.4,31.8,53,29.95,10.0,West,10.4,-,N/A,,Scattered Clouds,280,2013-04-13 22:35:00
5:55 PM,48.2,31.5,52,29.94,10.0,WSW,6.9,-,N/A,,Mostly Cloudy,250,2013-04-13 22:55:00
6:15 PM,47.8,31.8,54,29.94,10.0,West,10.4,-,N/A,,Mostly Cloudy,270,2013-04-13 23:15:00
6:35 PM,47.8,31.8,54,29.94,10.0,West,8.1,-,N/A,,Scattered Clouds,260,2013-04-13 23:35:00
6:55 PM,46.4,32.0,57,29.94,10.0,West,8.1,-,N/A,,Mostly Cloudy,280,2013-04-13 23:55:00
7:15 PM,46.6,32.4,58,29.94,10.0,WNW,5.8,-,N/A,,Overcast,300,2013-04-14 00:15:00
7:35 PM,45.9,34.2,64,29.94,10.0,Calm,Calm,-,N/A,,Overcast,0,2013-04-14 00:35:00
7:55 PM,46.4,33.4,61,29.94,10.0,Calm,Calm,-,N/A,,Overcast,0,2013-04-14 00:55:00
8:15 PM,45.1,36.0,70,29.94,10.0,Calm,Calm,-,N/A,,Overcast,0,2013-04-14 01:15:00
8:35 PM,44.6,36.0,72,29.94,10.0,Calm,Calm,-,N/A,,Overcast,0,2013-04-14 01:35:00
8:55 PM,45.0,34.3,66,29.94,10.0,Calm,Calm,-,N/A,,Overcast,0,2013-04-14 01:55:00
9:15 PM,44.8,35.4,70,29.95,10.0,Calm,Calm,-,N/A,,Overcast,0,2013-04-14 02:15:00
9:35 PM,44.4,35.4,71,29.95,10.0,Calm,Calm,-,N/A,,Overcast,0,2013-04-14 02:35:00
9:55 PM,44.6,34.3,67,29.96,10.0,Calm,Calm,-,N/A,,Overcast,0,2013-04-14 02:55:00
10:15 PM,44.6,34.7,68,29.96,10.0,Calm,Calm,-,N/A,,Overcast,0,2013-04-14 03:15:00
10:35 PM,43.7,34.7,71,29.96,10.0,Calm,Calm,-,N/A,,Overcast,0,2013-04-14 03:35:00
10:55 PM,43.7,34.7,71,29.96,10.0,Calm,Calm,-,N/A,,Overcast,0,2013-04-14 03:55:00
11:15 PM,43.7,34.7,71,29.97,10.0,ENE,5.8,-,N/A,,Overcast,70,2013-04-14 04:15:00
11:35 PM,43.7,34.7,71,29.97,10.0,East,5.8,-,N/A,,Overcast,80,2013-04-14 04:35:00
11:55 PM,43.5,35.1,72,29.97,10.0,East,6.9,-,N/A,,Overcast,90,2013-04-14 04:55:00